Home > Time Zones > World Clock > Weather > Italy > Milan > Past weeks

Flag for Italy Weather past 2 weeks in Milan, Italy

Now
73 °F

Scattered clouds.


Feels Like: 76 °F
Forecast: 62 / 75 °F
Wind: 6 mph from East

Location: Milan / Linate

Current Time: Aug 22, 2014 at 2:35:40 PM

Latest Report: Aug 22, 2014 at 1:50 PM


Visibility: N/A

Pressure: 29.98 "Hg

Humidity: 65%

Dew point: 61 °F

Location of MilanLocation

Historic Weather in Milan — Graph

°F

Milan temperature yesterday

Maximum temperature yesterday: 77 °F (at 3:20 PM)
Minimum temperature yesterday: 59 °F (at 2:50 AM)
Average temperature yesterday: 68 °F

Past Weeks' High & Low Weather Summary

 TemperatureHumidityPressure
High86 °F (Aug 11, 4:20 PM)100% (Aug 9, 12:50 AM)30.09 "Hg (Aug 9, 12:50 AM)
Low55 °F (Aug 17, 6:20 AM)32% (Aug 14, 5:20 PM)29.68 "Hg (Aug 13, 9:20 AM)
Average72 °F76%29.91 "Hg
* Reported Aug 7 1:20 PM — Aug 22 1:20 PM, Milan, Weather by CustomWeather, © 2014

Note: Actual official high and low records may vary slightly from our data, if they occured in-between our weather recording intervals... More about our weather records

Advertising

Milan weather history for previous 24 hours

 ConditionsComfort  
Time TempWeatherWind HumidityBarometerVisibility
1:20 PM
Aug 22
73 °FScattered clouds.7 mph69%29.98 "HgN/A
12:50 PM73 °FScattered clouds.8 mph69%29.98 "HgN/A
12:20 PM73 °FScattered clouds.6 mph69%29.98 "HgN/A
11:50 AM72 °FScattered clouds.5 mph73%29.98 "HgN/A
11:20 AM72 °FScattered clouds.8 mph73%29.98 "HgN/A
10:50 AM68 °FBroken clouds.7 mph83%29.98 "HgN/A
10:20 AM70 °FBroken clouds.8 mph83%29.98 "HgN/A
9:50 AM70 °FBroken clouds.8 mph78%29.98 "HgN/A
9:20 AM68 °FBroken clouds.7 mph83%29.98 "HgN/A
8:50 AM66 °FBroken clouds.5 mph88%29.98 "HgN/A
8:20 AM66 °FBroken clouds.5 mph83%29.98 "HgN/A
7:50 AM66 °FBroken clouds.5 mph88%29.95 "HgN/A
7:20 AM66 °FPassing clouds.5 mph88%29.95 "HgN/A
6:50 AM66 °FPassing clouds.6 mph88%29.95 "Hg5 mi
6:20 AM66 °FPassing clouds.6 mph88%29.95 "HgN/A
5:50 AM66 °FPassing clouds.7 mph94%29.95 "HgN/A
5:20 AM66 °FPassing clouds.5 mph88%29.95 "HgN/A
4:50 AM66 °FPassing clouds.3 mph88%29.95 "HgN/A
4:20 AM66 °FPartly cloudy.3 mph88%29.95 "HgN/A
3:50 AM66 °FPassing clouds.2 mph83%29.95 "HgN/A
3:20 AM66 °FPassing clouds.3 mph83%29.95 "HgN/A
2:50 AM66 °FPassing clouds.3 mph88%29.95 "HgN/A
2:20 AM66 °FPassing clouds.3 mph88%29.95 "HgN/A
1:50 AM68 °FPassing clouds.3 mph83%29.95 "HgN/A
1:20 AM68 °FPassing clouds.No wind83%29.95 "HgN/A
12:50 AM68 °FPassing clouds.3 mph83%29.95 "HgN/A
12:20 AM68 °FPassing clouds.3 mph83%29.95 "HgN/A
11:50 PM
Aug 21
68 °FPassing clouds.3 mph83%29.95 "HgN/A
11:20 PM68 °FClear.1 mph83%29.95 "Hg10 mi
10:50 PM66 °FClear.1 mph88%29.95 "Hg10 mi
10:20 PM68 °FClear.1 mph83%29.95 "Hg10 mi
9:50 PM70 °FPassing clouds.1 mph78%29.95 "HgN/A
9:20 PM72 °FPassing clouds.2 mph78%29.95 "HgN/A
8:50 PM72 °FPassing clouds.3 mph73%29.92 "HgN/A
8:20 PM73 °FPassing clouds.5 mph69%29.92 "HgN/A
7:50 PM75 °FPassing clouds.5 mph65%29.92 "HgN/A
7:20 PM75 °FPassing clouds.6 mph61%29.92 "HgN/A
6:50 PM75 °FPassing clouds.7 mph61%29.89 "HgN/A
6:20 PM77 °FPassing clouds.6 mph61%29.89 "HgN/A
5:50 PM77 °FScattered clouds.7 mph61%29.92 "HgN/A
4:50 PM77 °FScattered clouds.8 mph61%29.92 "HgN/A
4:20 PM77 °FScattered clouds.6 mph61%29.92 "HgN/A
3:50 PM77 °FScattered clouds.6 mph54%29.92 "HgN/A
3:20 PM77 °FScattered clouds.6 mph57%29.92 "HgN/A
2:50 PM75 °FScattered clouds.5 mph57%29.95 "HgN/A
2:20 PM75 °FScattered clouds.6 mph61%29.95 "HgN/A
Weather by CustomWeather, © 2014

See weather overviewHow to use our weather pages